Flag for Russia Weather past 2 weeks in Yuzhno-Sakhalinsk, Russia

Now
63 °F

Rain showers. Fog.


Feels Like: 63 °F
Forecast: 53 / 62 °F
Wind: No wind

Location: Yuzhno Airport-Sakhalinsk

Current Time: Jul 27, 2014 at 5:17:16 AM

Latest Report: Jul 27, 2014 at 4:00 AM


Visibility: 1 mi

Pressure: 29.65 "Hg

Humidity: 100%

Dew point: 63 °F

Location of Yuzhno-SakhalinskLocation

Historic Weather in Yuzhno-Sakhalinsk — Graph

°F

Yuzhno-Sakhalinsk temperature yesterday

Maximum temperature yesterday: 72 °F (at 10:30 AM)
Minimum temperature yesterday: 54 °F (at 4:00 AM)
Average temperature yesterday: 64 °F

Past Weeks' High & Low Weather Summary

 TemperatureHumidityPressure
High79 °F (Jul 19, 3:00 PM)100% (Jul 12, 6:30 AM)30.07 "Hg (Jul 12, 6:30 AM)
Low45 °F (Jul 13, 4:00 AM)60% (Jul 12, 5:00 PM)29.45 "Hg (Jul 12, 4:00 AM)
Average66 °F87%29.75 "Hg
* Reported Jul 12 4:00 AM — Jul 27 4:00 AM, Yuzhno-Sakhalinsk, Weather by CustomWeather, © 2014

Note: Actual official high and low records may vary slightly from our data, if they occured in-between our weather recording intervals... More about our weather records

Advertising

Yuzhno-Sakhalinsk weather history for previous 24 hours

 ConditionsComfort  
Time TempWeatherWind HumidityBarometerVisibility
4:00 AM
Jul 27
63 °FRain showers. Fog.No wind100%29.65 "Hg1 mi
3:00 AM63 °FFog.1 mph100%29.65 "Hg1 mi
2:00 AM63 °FFog.No wind100%29.68 "Hg1 mi
1:00 AM64 °FFog.No wind100%29.68 "Hg1 mi
12:00 AM64 °FFog.No wind100%29.68 "Hg1 mi
11:00 PM
Jul 26
64 °FFog.No wind100%29.71 "Hg1 mi
10:00 PM64 °FFog.No wind100%29.71 "Hg1 mi
9:30 PM64 °FFog.1 mph100%29.71 "Hg1 mi
9:00 PM64 °FFog.1 mph100%29.71 "Hg1 mi
8:30 PM64 °FFog.1 mph100%29.71 "Hg1 mi
8:00 PM64 °FSprinkles. Fog.1 mph100%29.71 "Hg1 mi
7:30 PM64 °FSprinkles. Fog.6 mph100%29.74 "Hg1 mi
7:00 PM64 °FSprinkles. Fog.6 mph100%29.74 "Hg1 mi
6:30 PM64 °FFog.6 mph100%29.74 "Hg1 mi
6:00 PM64 °FFog.8 mph100%29.74 "Hg1 mi
5:30 PM66 °FFog.8 mph100%29.74 "Hg1 mi
5:00 PM68 °FFog.8 mph88%29.74 "Hg2 mi
4:30 PM68 °FPartly sunny.8 mph88%29.74 "Hg5 mi
4:00 PM70 °FPartly sunny.8 mph83%29.74 "HgN/A
3:30 PM70 °FScattered clouds.8 mph83%29.77 "HgN/A
3:00 PM70 °FScattered clouds.8 mph78%29.77 "HgN/A
2:30 PM70 °FScattered clouds.8 mph83%29.77 "HgN/A
2:00 PM70 °FScattered clouds.8 mph83%29.77 "HgN/A
1:30 PM72 °FScattered clouds.8 mph78%29.77 "HgN/A
1:00 PM72 °FScattered clouds.8 mph78%29.77 "HgN/A
12:30 PM72 °FScattered clouds.8 mph78%29.80 "HgN/A
12:00 PM72 °FScattered clouds.8 mph78%29.80 "HgN/A
11:30 AM72 °FScattered clouds.6 mph78%29.80 "HgN/A
11:00 AM72 °FScattered clouds.3 mph78%29.80 "HgN/A
10:30 AM72 °FPassing clouds.1 mph83%29.80 "HgN/A
10:00 AM70 °FClear.No wind83%29.80 "HgN/A
9:30 AM66 °FClear.No wind88%29.80 "HgN/A
9:00 AM64 °FPassing clouds.No wind100%29.80 "HgN/A
8:30 AM61 °FFog.No wind100%29.80 "Hg2 mi
8:00 AM59 °FFog.No wind100%29.80 "Hg1 mi
7:30 AM57 °FFog.No wind100%29.80 "Hg1 mi
7:00 AM55 °FFog.No wind100%29.80 "Hg1 mi
6:30 AM54 °FFog.No wind100%29.80 "Hg1 mi
6:00 AM54 °FFog.3 mph100%29.80 "Hg1 mi
5:00 AM54 °FPassing clouds.1 mph100%29.77 "HgN/A
Weather by CustomWeather, © 2014

See weather overviewHow to use our weather pages